Location: Newark
(54.6833°N, 25.2833°E)
Time: 23:32:03
(UTC+00:00)

Altair - Pass Details

Date: 18 November 2019
Orbit: 1502 x 1682 km, 47.2° (Epoch: 05 December)

Event Time Altitude Azimuth Distance (km) Brightness Sun altitude
Rises 06:33:30 0° 277° (W) 4,648 9.5 3.7°
Reaches altitude 10° 06:36:41 10° 271° (W) 3,675 9.1 4.0°
Maximum altitude 06:45:06 41° 205° (SSW) 2,100 8.5 4.9°
Drops below altitude 10° 06:53:46 10° 140° (SE) 3,774 12.5 5.8°
Sets 06:57:06 0° 134° (SE) 4,783 12.9 6.1°
